Regional Weather Roundup
Issued by NWS Boston, MA

Current Version | Previous Version | Text Only | Print | Product List | Glossary Off
Versions: 1 2 3 4 5 6 7 8 9 10 11 12 13 14 15 16 17 18 19 20 21 22 23 24 25 26 27
000 ASUS41 KBOX 161510 RWRBOX REGIONAL WEATHER ROUNDUP NATIONAL WEATHER SERVICE TAUNTON MA 1000 AM EST SAT DEC 16 2017 NOTE: "FAIR" INDICATES FEW OR NO CLOUDS BELOW 12,000 FEET WITH NO SIGNIFICANT WEATHER AND/OR OBSTRUCTIONS TO VISIBILITY. MAZALL-161600- EASTERN MASSACHUSETTS CITY SKY/WX TMP DP RH WIND PRES REMARKS BOSTON MOSUNNY 29 16 58 W14 29.94R WCI 18 BEVERLY MOSUNNY 28 15 58 W13 29.91R WCI 17 LAWRENCE SUNNY 28 16 60 W10 29.93R WCI 19 BEDFORD SUNNY 27 14 58 W13 29.92R WCI 16 BLUE HILL N/A 25 14 63 W10G23 29.90R WCI 15 NORWOOD SUNNY 29 16 58 W10G22 29.94R WCI 20 MARSHFIELD SUNNY 27 18 69 W10 29.94R WCI 17 PLYMOUTH SUNNY 28 17 63 W12 29.95R WCI 18 TAUNTON SUNNY 27 16 63 W9 29.97R WCI 18 NEW BEDFORD SUNNY 27 19 72 W12 29.96R WCI 17 $$ MAZALL-161600- CAPE COD AND THE ISLANDS CITY SKY/WX TMP DP RH WIND PRES REMARKS FALMOUTH SUNNY 27 18 69 W17 29.97R WCI 14 HYANNIS SUNNY 28 18 66 W12G18 29.94R WCI 18 CHATHAM SUNNY 29 21 72 W10G18 29.95R WCI 20 PROVINCETOWN SUNNY 30 21 69 W20G26 N/A WCI 17 NANTUCKET SUNNY 32 19 58 W18G25 29.96R WCI 20 MARTHAS VNYRD SUNNY 30 21 69 W16G28 29.97R WCI 19 $$ MAZALL-161600- CENTRAL AND WESTERN MASSACHUSETTS CITY SKY/WX TMP DP RH WIND PRES REMARKS WORCESTER SUNNY 22 12 65 W16 29.88R WCI 8 FITCHBURG SUNNY 29 16 58 W12G20 29.91R WCI 19 ORANGE NOT AVBL SPRINGFIELD MOSUNNY 24 17 74 S7 29.96R WCI 16 WESTFIELD MOSUNNY 22 16 78 S6 29.97R WCI 14 NORTH ADAMS MOSUNNY 25 12 58 W12 29.91R WCI 14 PITTSFIELD MOSUNNY 24 12 60 SW8 29.88R WCI 15 $$ RIZALL-161600- RHODE ISLAND CITY SKY/WX TMP DP RH WIND PRES REMARKS PROVIDENCE MOSUNNY 28 18 64 W16 29.99R WCI 17 NEWPORT SUNNY 28 18 66 W8G20 29.98R WCI 20 BLOCK ISLAND PTSUNNY 33 18 53 W15G26 30.01R WCI 23 SMITHFIELD SUNNY 28 17 63 W9G23 29.95R WCI 19 WESTERLY SUNNY 30 18 60 W10G20 30.02R WCI 21 $$ CTZALL-161600- CONNECTICUT CITY SKY/WX TMP DP RH WIND PRES REMARKS BRADLEY INTL PTSUNNY 26 17 68 W10G18 29.98R WCI 16 HARTFORD PTSUNNY 29 17 61 VRB7 30.01R WCI 22 BRIDGEPORT CLOUDY 30 19 63 W15G25 30.04R WCI 19 DANBURY CLOUDY 27 17 66 SW12 30.02R WCI 17 GROTON SUNNY 30 17 58 W15 30.02R WCI 19 NEW HAVEN PTSUNNY 30 19 63 W10G20 30.03R WCI 21 CHESTER FAIR 30 16 55 W12G24 29.99R WCI 21 MERIDEN PTSUNNY 27 16 63 CALM 30.02R WILLIMANTIC SUNNY 26 18 71 W3 30.01R OXFORD CLOUDY 29 18 63 W8 29.99R WCI 21 $$ MEZ002-015-021-024-NHZ003-005-008-011-012-014-VTZ005-008-161600- NORTHERN NEW ENGLAND CITY SKY/WX TMP DP RH WIND PRES REMARKS PORTLAND ME SUNNY 21 13 71 W8 29.88R WCI 11 BANGOR ME MOSUNNY 18 10 71 W6 29.82R WCI 10 CONCORD NH SUNNY 20 14 77 CALM 29.88R MANCHESTER NH MOSUNNY 25 15 66 S7 29.88R WCI 17 NASHUA NH SUNNY 29 17 61 VRB3 29.90S PORTSMOUTH NH MOSUNNY 24 13 63 SW7 29.88R WCI 16 JAFFREY NH SUNNY 25 14 63 W12G18 29.85R WCI 14 KEENE NH SUNNY 20 15 81 CALM 29.91R BURLINGTON VT PTSUNNY 23 15 71 S12 29.85R WCI 12 MT. WASHINGTON SNOW -2 -2 100 NW43 N/A VSB 0 WCI -33 $$ NYZ052-076-161600- EASTERN NEW YORK CITY SKY/WX TMP DP RH WIND PRES REMARKS ALBANY MOSUNNY 29 13 51 W13 29.95R WCI 19 NEW YORK CITY PTSUNNY 33 17 51 SW17G23 30.07R WCI 22 $$ ANZALL-161600- MARINE OBSERVATIONS STATION/POSITION TIME TEMP WIND PRES VSBY WAVE AIR SEA DIR/SP/G HT/PER (UTC) (F) (DEG/KT/KT) (MB) (MI) (FT/S) BOSTON BUOY 1450 30 47 270/ 23/ 29 1012.3R 3/ 4 BUZZARDS BAY 1400 30 270/ 26/ 28 1014.7R NANTUCKET SOUND 1450 32 42 300/ 23/ 31 1013.7R 4/ 4 MASS BAY-STELLWA 1404 29 47 280/ 19/ 23 1011.8R 3/ 4 ISLE OF SHOALS 1400 23 270/ 10/ 11 1011.9R S OF BLOCK IS 1443 52 N/A 8/ 6 $$ ......................KEY......................... SKY/WX - SKY CONDITION/PRESENT WEATHER TMP - TEMPERATURE IN FAHRENHEIT DWPT - DEWPOINT IN FAHRENHEIT RH - RELATIVE HUMIDITY IN PERCENT WIND - DIRECTION AND SPEED IN MPH PRES - MEAN SEA LEVEL PRESSURE IN INCHES OF HG WCI - WIND CHILL INDEX VSB - VISIBILITY IN MILES HX - HEAT INDEX TC - TEMPERATURE IN CELSIUS VRB - VARIABLE WIND DIRECTION N/A - NOT AVAILABLE

USA.gov is the U.S. government's official web portal to all federal, state and local government web resources and services.